Year,Month,Day,Hour,Minute,Value (Times are PST for temperature in C)
2014,09,20,09,14,14.80
2014,09,20,09,15,14.80
2014,09,20,09,16,14.80
2014,09,20,09,17,14.80
2014,09,20,09,18,14.80
2014,09,20,09,19,14.80
2014,09,20,09,20,14.80
2014,09,20,09,21,14.80
2014,09,20,09,22,14.80
2014,09,20,09,23,14.80
2014,09,20,09,24,14.80
2014,09,20,09,25,14.80
2014,09,20,09,26,14.80
2014,09,20,09,27,14.80
2014,09,20,09,28,14.80
2014,09,20,09,29,14.80
2014,09,20,09,30,14.80
2014,09,20,09,31,14.80
2014,09,20,09,32,14.80
2014,09,20,09,33,14.80
2014,09,20,09,34,14.80
2014,09,20,09,35,14.80
2014,09,20,09,36,14.80
2014,09,20,09,37,14.80
2014,09,20,09,38,14.90
2014,09,20,09,39,14.90
2014,09,20,09,40,14.90
2014,09,20,09,41,14.90
2014,09,20,09,42,14.90
2014,09,20,09,43,14.90
2014,09,20,09,44,14.90
2014,09,20,09,45,14.90
2014,09,20,09,46,14.90
2014,09,20,09,47,14.90
2014,09,20,09,48,14.80
2014,09,20,09,49,14.80
2014,09,20,09,50,14.80
2014,09,20,09,51,14.80
2014,09,20,09,52,14.80
2014,09,20,09,53,14.80
2014,09,20,09,54,14.80
2014,09,20,09,55,14.80
2014,09,20,09,56,14.80
2014,09,20,09,57,14.80
2014,09,20,09,58,14.80
2014,09,20,09,59,14.80
2014,09,20,10,00,14.80
2014,09,20,10,01,14.80
2014,09,20,10,02,14.80
2014,09,20,10,03,14.90
2014,09,20,10,04,14.90
2014,09,20,10,05,14.90
2014,09,20,10,06,14.90
2014,09,20,10,07,14.90
2014,09,20,10,08,15.00
2014,09,20,10,09,15.00
2014,09,20,10,10,15.00
2014,09,20,10,11,15.00
2014,09,20,10,12,15.10
2014,09,20,10,13,15.10
2014,09,20,10,14,15.20
2014,09,20,10,15,15.20
2014,09,20,10,16,15.20
2014,09,20,10,17,15.20
2014,09,20,10,18,15.20
2014,09,20,10,19,15.30
2014,09,20,10,20,15.30
2014,09,20,10,21,15.30
2014,09,20,10,22,15.30
2014,09,20,10,23,15.30
2014,09,20,10,24,15.30
2014,09,20,10,25,15.30
2014,09,20,10,26,15.40
2014,09,20,10,27,15.40
2014,09,20,10,28,15.40
2014,09,20,10,29,15.50
2014,09,20,10,30,15.50
2014,09,20,10,31,15.50
2014,09,20,10,32,15.60
2014,09,20,10,33,15.60
2014,09,20,10,34,15.60
2014,09,20,10,35,15.70
2014,09,20,10,36,15.70
2014,09,20,10,37,15.80
2014,09,20,10,38,15.80
2014,09,20,10,39,15.80
2014,09,20,10,40,15.80
2014,09,20,10,41,15.90
2014,09,20,10,42,15.90
2014,09,20,10,43,15.90
2014,09,20,10,44,15.90
2014,09,20,10,45,15.90
2014,09,20,10,46,15.90
2014,09,20,10,47,15.90
2014,09,20,10,48,16.00
2014,09,20,10,49,16.10
2014,09,20,10,50,16.10
2014,09,20,10,51,16.10
2014,09,20,10,52,16.10
2014,09,20,10,53,16.10
2014,09,20,10,54,16.10
2014,09,20,10,55,16.10
2014,09,20,10,56,16.10
2014,09,20,10,57,16.10
2014,09,20,10,58,16.10
2014,09,20,10,59,16.10
2014,09,20,11,00,16.10
2014,09,20,11,01,16.20
2014,09,20,11,02,16.20
2014,09,20,11,03,16.10
2014,09,20,11,04,16.10
2014,09,20,11,05,16.10
2014,09,20,11,06,16.20
2014,09,20,11,07,16.20
2014,09,20,11,08,16.20
2014,09,20,11,09,16.20
2014,09,20,11,10,16.20
2014,09,20,11,11,16.20
2014,09,20,11,12,16.10
2014,09,20,11,13,16.20
2014,09,20,11,14,16.20
2014,09,20,11,15,16.20
2014,09,20,11,16,16.20
2014,09,20,11,17,16.30
2014,09,20,11,18,16.30
2014,09,20,11,19,16.30
2014,09,20,11,20,16.30
2014,09,20,11,21,16.30
2014,09,20,11,22,16.30
2014,09,20,11,23,16.30
2014,09,20,11,24,16.20
2014,09,20,11,25,16.20
2014,09,20,11,26,16.20
2014,09,20,11,27,16.20
2014,09,20,11,28,16.20
2014,09,20,11,29,16.20
2014,09,20,11,30,16.20
2014,09,20,11,31,16.20
2014,09,20,11,32,16.20
2014,09,20,11,33,16.20
2014,09,20,11,34,16.30
2014,09,20,11,35,16.30
2014,09,20,11,36,16.30
2014,09,20,11,37,16.20
2014,09,20,11,38,16.20
2014,09,20,11,39,16.10
2014,09,20,11,40,16.10
2014,09,20,11,41,16.10
2014,09,20,11,42,16.10
2014,09,20,11,43,16.10
2014,09,20,11,44,16.10
2014,09,20,11,45,16.10
2014,09,20,11,46,16.10
2014,09,20,11,47,16.10
2014,09,20,11,48,16.10
2014,09,20,11,49,16.10
2014,09,20,11,50,16.10
2014,09,20,11,51,16.20
2014,09,20,11,52,16.20
2014,09,20,11,53,16.20
2014,09,20,11,54,16.20
2014,09,20,11,55,16.20
2014,09,20,11,56,16.30
2014,09,20,11,57,16.30
2014,09,20,11,58,16.40
2014,09,20,11,59,16.40
2014,09,20,12,00,16.50
2014,09,20,12,01,16.70
2014,09,20,12,02,16.70
2014,09,20,12,03,16.70
2014,09,20,12,04,16.80
2014,09,20,12,05,16.80
2014,09,20,12,06,16.90
2014,09,20,12,07,17.00
2014,09,20,12,08,17.00
2014,09,20,12,09,17.00
2014,09,20,12,10,17.00
2014,09,20,12,11,17.00
2014,09,20,12,12,17.00
2014,09,20,12,13,17.00
2014,09,20,12,14,17.00
2014,09,20,12,15,17.00
2014,09,20,12,16,17.00
2014,09,20,12,17,17.10
2014,09,20,12,18,17.10
2014,09,20,12,19,17.20
2014,09,20,12,20,17.30
2014,09,20,12,21,17.30
2014,09,20,12,22,17.30
2014,09,20,12,23,17.30
2014,09,20,12,24,17.30
2014,09,20,12,25,17.30
2014,09,20,12,26,17.40
2014,09,20,12,27,17.50
2014,09,20,12,28,17.50
2014,09,20,12,29,17.60
2014,09,20,12,30,17.60
2014,09,20,12,31,17.50
2014,09,20,12,32,17.40
2014,09,20,12,33,17.30
2014,09,20,12,34,17.30
2014,09,20,12,35,17.30
2014,09,20,12,36,17.30
2014,09,20,12,37,17.40
2014,09,20,12,38,17.40
2014,09,20,12,39,17.40
2014,09,20,12,40,17.40
2014,09,20,12,41,17.40
2014,09,20,12,42,17.30
2014,09,20,12,43,17.30
2014,09,20,12,44,17.30
2014,09,20,12,45,17.30
2014,09,20,12,46,17.30
2014,09,20,12,47,17.30
2014,09,20,12,48,17.30
2014,09,20,12,49,17.30
2014,09,20,12,50,17.40
2014,09,20,12,51,17.50
2014,09,20,12,52,17.40
2014,09,20,12,53,17.50
2014,09,20,12,54,17.50
2014,09,20,12,55,17.60
2014,09,20,12,56,17.60
2014,09,20,12,57,17.70
2014,09,20,12,58,17.70
2014,09,20,12,59,17.70
2014,09,20,13,00,17.70
2014,09,20,13,01,17.80
2014,09,20,13,02,17.80
2014,09,20,13,03,17.90
2014,09,20,13,04,17.90
2014,09,20,13,05,17.80
2014,09,20,13,06,17.70
2014,09,20,13,07,17.70
2014,09,20,13,08,17.70
2014,09,20,13,09,17.70
2014,09,20,13,10,17.70
2014,09,20,13,11,17.80
2014,09,20,13,12,17.80
2014,09,20,13,13,17.80
2014,09,20,13,14,17.80
2014,09,20,13,15,17.80
2014,09,20,13,16,17.70
2014,09,20,13,17,17.70
2014,09,20,13,18,17.70
2014,09,20,13,19,17.70
2014,09,20,13,20,17.60
2014,09,20,13,21,17.60
2014,09,20,13,22,17.70
2014,09,20,13,23,17.70
2014,09,20,13,24,17.70
2014,09,20,13,25,17.70
2014,09,20,13,26,17.70
2014,09,20,13,27,17.70
2014,09,20,13,28,17.70
2014,09,20,13,29,17.70
2014,09,20,13,30,17.70
2014,09,20,13,31,17.70
2014,09,20,13,32,17.70
2014,09,20,13,33,17.80
2014,09,20,13,34,17.80
2014,09,20,13,35,17.80
2014,09,20,13,36,17.80
2014,09,20,13,37,17.80
2014,09,20,13,38,17.80
2014,09,20,13,39,17.80
2014,09,20,13,40,17.70
2014,09,20,13,41,17.70
2014,09,20,13,42,17.70
2014,09,20,13,43,17.70
2014,09,20,13,44,17.80
2014,09,20,13,45,17.90
2014,09,20,13,46,17.90
2014,09,20,13,47,17.90
2014,09,20,13,48,17.90
2014,09,20,13,49,17.90
2014,09,20,13,50,17.90
2014,09,20,13,51,17.90
2014,09,20,13,52,17.90
2014,09,20,13,53,17.90
2014,09,20,13,54,17.90
2014,09,20,13,55,17.90
2014,09,20,13,56,18.00
2014,09,20,13,57,18.10
2014,09,20,13,58,18.20
2014,09,20,13,59,18.20
2014,09,20,14,00,18.20
2014,09,20,14,01,18.20
2014,09,20,14,02,18.20
2014,09,20,14,03,18.20
2014,09,20,14,04,18.30
2014,09,20,14,05,18.20
2014,09,20,14,06,18.20
2014,09,20,14,07,18.20
2014,09,20,14,08,18.10
2014,09,20,14,09,18.10
2014,09,20,14,10,18.10
2014,09,20,14,11,18.10
2014,09,20,14,12,18.10
2014,09,20,14,13,18.10
2014,09,20,14,14,18.10
2014,09,20,14,15,18.10
2014,09,20,14,16,18.10
2014,09,20,14,17,18.20
2014,09,20,14,18,18.20
2014,09,20,14,19,18.20
2014,09,20,14,20,18.20
2014,09,20,14,21,18.30
2014,09,20,14,22,18.40
2014,09,20,14,23,18.40
2014,09,20,14,24,18.40
2014,09,20,14,25,18.40
2014,09,20,14,26,18.40
2014,09,20,14,27,18.40
2014,09,20,14,28,18.40
2014,09,20,14,29,18.30
2014,09,20,14,30,18.30
2014,09,20,14,31,18.30
2014,09,20,14,32,18.20
2014,09,20,14,33,18.20
2014,09,20,14,34,18.20
2014,09,20,14,35,18.10
2014,09,20,14,36,18.00
2014,09,20,14,37,17.90
2014,09,20,14,38,18.00
2014,09,20,14,39,18.10
2014,09,20,14,40,18.10
2014,09,20,14,41,18.10
2014,09,20,14,42,18.20
2014,09,20,14,43,18.20
2014,09,20,14,44,18.20
2014,09,20,14,45,18.20
2014,09,20,14,46,18.30
2014,09,20,14,47,18.30
2014,09,20,14,48,18.20
2014,09,20,14,49,18.20
2014,09,20,14,50,18.20
2014,09,20,14,51,18.30
2014,09,20,14,52,18.30
2014,09,20,14,53,18.30
2014,09,20,14,54,18.40
2014,09,20,14,55,18.50
2014,09,20,14,56,18.50
2014,09,20,14,57,18.60
2014,09,20,14,58,18.70
2014,09,20,14,59,18.80
2014,09,20,15,00,18.80
2014,09,20,15,01,18.90
2014,09,20,15,02,19.00
2014,09,20,15,03,19.10
2014,09,20,15,04,19.10
2014,09,20,15,05,19.00
2014,09,20,15,06,18.90
2014,09,20,15,07,18.90
2014,09,20,15,08,18.90
2014,09,20,15,09,18.90
2014,09,20,15,10,18.90
2014,09,20,15,11,18.90
2014,09,20,15,12,18.90
2014,09,20,15,13,18.90
2014,09,20,15,14,18.90
2014,09,20,15,15,18.90
2014,09,20,15,16,18.90
2014,09,20,15,17,18.90
2014,09,20,15,18,18.80
2014,09,20,15,19,18.80
2014,09,20,15,20,18.80
2014,09,20,15,21,18.90
2014,09,20,15,22,18.90
2014,09,20,15,23,18.90
2014,09,20,15,24,18.90
2014,09,20,15,25,18.90
2014,09,20,15,26,18.90
2014,09,20,15,27,18.90
2014,09,20,15,28,18.90
2014,09,20,15,29,18.90
2014,09,20,15,30,18.90
2014,09,20,15,31,18.90
2014,09,20,15,32,18.90
2014,09,20,15,33,18.90
2014,09,20,15,34,18.90
2014,09,20,15,35,18.90
2014,09,20,15,36,19.00
2014,09,20,15,37,19.10
2014,09,20,15,38,19.10
2014,09,20,15,39,19.10
2014,09,20,15,40,19.10
2014,09,20,15,41,19.20
2014,09,20,15,42,19.20
2014,09,20,15,43,19.30
2014,09,20,15,44,19.30
2014,09,20,15,45,19.30
2014,09,20,15,46,19.30
2014,09,20,15,47,19.20
2014,09,20,15,48,19.20
2014,09,20,15,49,19.20
2014,09,20,15,50,19.10
2014,09,20,15,51,19.10
2014,09,20,15,52,19.10
2014,09,20,15,53,19.10
2014,09,20,15,54,19.10
2014,09,20,15,55,19.10
2014,09,20,15,56,19.10
2014,09,20,15,57,19.10
2014,09,20,15,58,19.10
2014,09,20,15,59,19.10
2014,09,20,16,00,19.10
2014,09,20,16,01,19.10
2014,09,20,16,02,19.10
2014,09,20,16,03,19.10
2014,09,20,16,04,19.10
2014,09,20,16,05,19.10
2014,09,20,16,06,19.10
2014,09,20,16,07,19.10
2014,09,20,16,08,19.10
2014,09,20,16,09,19.10
2014,09,20,16,10,19.10
2014,09,20,16,11,19.20
2014,09,20,16,12,19.10
2014,09,20,16,13,19.20
2014,09,20,16,14,19.20
2014,09,20,16,15,19.30
2014,09,20,16,16,19.30
2014,09,20,16,17,19.40
2014,09,20,16,18,19.50
2014,09,20,16,19,19.50
2014,09,20,16,20,19.50
2014,09,20,16,21,19.50
2014,09,20,16,22,19.50
2014,09,20,16,23,19.50
2014,09,20,16,24,19.50
2014,09,20,16,25,19.50
2014,09,20,16,26,19.60
2014,09,20,16,27,19.60
2014,09,20,16,28,19.60
2014,09,20,16,29,19.60
2014,09,20,16,30,19.50
2014,09,20,16,31,19.50
2014,09,20,16,32,19.50
2014,09,20,16,33,19.50
2014,09,20,16,34,19.50
2014,09,20,16,35,19.50
2014,09,20,16,36,19.40
2014,09,20,16,37,19.40
2014,09,20,16,38,19.40
2014,09,20,16,39,19.40
2014,09,20,16,40,19.40
2014,09,20,16,41,19.30
2014,09,20,16,42,19.20
2014,09,20,16,43,19.10
2014,09,20,16,44,19.00
2014,09,20,16,45,18.90
2014,09,20,16,46,18.80
2014,09,20,16,47,18.80
2014,09,20,16,48,18.80
2014,09,20,16,49,18.70
2014,09,20,16,50,18.70
2014,09,20,16,51,18.70
2014,09,20,16,52,18.80
2014,09,20,16,53,18.80
2014,09,20,16,54,18.80
2014,09,20,16,55,18.70
2014,09,20,16,56,18.70
2014,09,20,16,57,18.80
2014,09,20,16,58,18.80
2014,09,20,16,59,18.70
2014,09,20,17,00,18.70
2014,09,20,17,01,18.70
2014,09,20,17,02,18.70
2014,09,20,17,03,18.70
2014,09,20,17,04,18.70
2014,09,20,17,05,18.80
2014,09,20,17,06,18.80
2014,09,20,17,07,18.70
2014,09,20,17,08,18.70
2014,09,20,17,09,18.70
2014,09,20,17,10,18.70
2014,09,20,17,11,18.70
2014,09,20,17,12,18.70
2014,09,20,17,13,18.80
2014,09,20,17,14,18.80
2014,09,20,17,15,18.80
2014,09,20,17,16,18.80
2014,09,20,17,17,18.80
2014,09,20,17,18,18.80
2014,09,20,17,19,18.80
2014,09,20,17,20,18.80
2014,09,20,17,21,18.80
2014,09,20,17,22,18.80
2014,09,20,17,23,18.80
2014,09,20,17,24,18.80
2014,09,20,17,25,18.80
2014,09,20,17,26,18.90
2014,09,20,17,27,18.90
2014,09,20,17,28,18.90
2014,09,20,17,29,18.90
2014,09,20,17,30,18.90
2014,09,20,17,31,19.10
2014,09,20,17,32,19.10
2014,09,20,17,33,19.00
2014,09,20,17,34,18.90
2014,09,20,17,35,18.90
2014,09,20,17,36,18.90
2014,09,20,17,37,18.80
2014,09,20,17,38,18.80
2014,09,20,17,39,18.80
2014,09,20,17,40,18.80
2014,09,20,17,41,18.80
2014,09,20,17,42,18.80
2014,09,20,17,43,18.80
2014,09,20,17,44,18.80
2014,09,20,17,45,18.80
2014,09,20,17,46,18.80
2014,09,20,17,47,18.90
2014,09,20,17,48,18.90
2014,09,20,17,49,18.90
2014,09,20,17,50,19.00
2014,09,20,17,51,19.10
2014,09,20,17,52,19.10
2014,09,20,17,53,19.10
2014,09,20,17,54,19.20
2014,09,20,17,55,19.20
2014,09,20,17,56,19.20
2014,09,20,17,57,19.30
2014,09,20,17,58,19.30
2014,09,20,17,59,19.20
2014,09,20,18,00,19.20
2014,09,20,18,01,19.20
2014,09,20,18,02,19.20
2014,09,20,18,03,19.10
2014,09,20,18,04,19.10
2014,09,20,18,05,19.00
2014,09,20,18,06,18.90
2014,09,20,18,07,18.90
2014,09,20,18,08,18.90
2014,09,20,18,09,18.80
2014,09,20,18,10,18.80
2014,09,20,18,11,18.80
2014,09,20,18,12,18.90
2014,09,20,18,13,18.80
2014,09,20,18,14,18.80
2014,09,20,18,15,18.80
2014,09,20,18,16,18.80
2014,09,20,18,17,18.80
2014,09,20,18,18,18.80
2014,09,20,18,19,18.90
2014,09,20,18,20,18.90
2014,09,20,18,21,18.90
2014,09,20,18,22,18.90
2014,09,20,18,23,18.80
2014,09,20,18,24,18.80
2014,09,20,18,25,18.70
2014,09,20,18,26,18.60
2014,09,20,18,27,18.60
2014,09,20,18,28,18.50
2014,09,20,18,29,18.50
2014,09,20,18,30,18.40
2014,09,20,18,31,18.30
2014,09,20,18,32,18.20
2014,09,20,18,33,18.20
2014,09,20,18,34,18.20
2014,09,20,18,35,18.20
2014,09,20,18,36,18.20
2014,09,20,18,37,18.20
2014,09,20,18,38,18.20
2014,09,20,18,39,18.20
2014,09,20,18,40,18.20
2014,09,20,18,41,18.20
2014,09,20,18,42,18.20
2014,09,20,18,43,18.20
2014,09,20,18,44,18.20
2014,09,20,18,45,18.20
